Location: Devore Heights
(34.2372°N, 117.4156°W)
Time: 22:49:14
(UTC+00:00)

Vanguard 2 Rocket - All Passes

Search period start: 11 September 2024 00:00
Search period end: 21 September 2024 00:00
Orbit: 553 x 3301 km, 32.9° (Epoch: 11 September)

Date Brightness Start Highest point End Pass type
(mag) Time Alt. Az. Time Alt. Az. Time Alt. Az.
11 Sep - 08:37:52 10° SSW 08:47:11 45° SE 09:02:25 10° E visible
11 Sep - 10:49:31 10° WSW 11:02:24 79° SSE 11:22:15 10° E visible
11 Sep - 13:03:47 10° W 13:20:34 85° S 13:40:57 10° ESE visible
11 Sep - 15:19:54 10° WNW 15:38:57 63° SSW 15:56:44 10° SE daylight
11 Sep - 17:39:17 10° W 17:54:52 30° SW 18:07:42 10° S daylight
12 Sep - 07:36:25 10° SSW 07:43:50 29° SE 07:55:14 10° E visible
12 Sep - 09:46:32 10° WSW 09:57:27 69° SSE 10:15:39 10° E visible
12 Sep - 11:59:46 10° W 12:14:31 86° S 12:35:05 10° E visible
12 Sep - 14:14:55 10° W 14:33:02 73° SSW 14:52:26 10° ESE daylight
12 Sep - 16:32:23 10° W 16:50:08 42° SW 17:05:37 10° SSE daylight
12 Sep - 18:59:08 10° WSW 19:04:31 12° SW 19:09:28 10° SW daylight
13 Sep - 06:36:21 10° SSE 06:41:03 16° SE 06:47:08 10° E visible
13 Sep - 08:44:03 10° SW 08:53:13 55° SSE 09:08:55 10° ENE visible
13 Sep - 10:56:14 10° WSW 11:08:53 84° S 11:28:40 10° E visible
13 Sep - 13:10:29 10° W 13:26:57 80° SSW 13:47:19 10° ESE daylight
13 Sep - 15:26:34 10° W 15:44:51 53° SSW 16:02:28 10° SE daylight
13 Sep - 17:47:21 10° W 18:00:22 22° SW 18:11:45 10° S daylight
14 Sep - 07:42:10 10° SSW 07:49:41 39° SE 08:02:07 10° E visible
14 Sep - 09:53:08 10° WSW 10:03:49 77° SSE 10:22:00 10° E visible
14 Sep - 12:06:31 10° W 12:21:00 85° S 12:41:28 10° ESE visible
14 Sep - 14:21:33 10° W 14:39:08 64° SSW 14:58:24 10° SE daylight
14 Sep - 16:39:34 10° W 16:55:44 33° SW 17:10:28 10° SSE daylight
15 Sep - 06:41:07 10° S 06:46:46 23° SE 06:55:02 10° E visible
15 Sep - 08:50:28 10° WSW 08:59:26 65° SSE 09:15:17 10° E visible
15 Sep - 11:02:59 10° W 11:15:23 86° S 11:35:03 10° E visible
15 Sep - 13:17:08 10° W 13:33:13 73° SSW 13:53:27 10° ESE daylight
15 Sep - 15:33:24 10° W 15:50:36 44° SW 16:07:45 10° SSE daylight
15 Sep - 17:57:09 10° WSW 18:05:54 15° SW 18:14:02 10° SSW daylight
16 Sep - 05:42:57 10° SE 05:44:15 10° SE 05:45:39 10° ESE night (unlit)
16 Sep - 07:48:16 10° SW 07:55:43 49° SSE 08:08:39 10° E visible
16 Sep - 09:59:49 10° WSW 10:10:17 83° S 10:28:20 10° E visible
16 Sep - 12:13:12 10° W 12:27:23 80° SSW 12:47:43 10° ESE visible
16 Sep - 14:28:13 10° W 14:45:04 55° SSW 15:03:59 10° SE daylight
16 Sep - 16:47:25 10° W 17:01:18 24° SW 17:14:28 10° S daylight
17 Sep - 06:46:40 10° SSW 06:52:37 32° SE 07:02:06 10° E visible
17 Sep - 08:57:02 10° WSW 09:05:47 75° SSE 09:21:35 10° E visible
17 Sep - 11:09:42 10° W 11:21:52 85° S 11:41:22 10° E visible
17 Sep - 13:23:47 10° W 13:39:22 65° SSW 13:59:16 10° SE daylight
17 Sep - 15:40:32 10° W 15:56:17 34° SW 16:12:26 10° SSE daylight
18 Sep - 05:46:05 10° S 05:50:01 17° SE 05:55:11 10° E night (unlit)
18 Sep - 07:54:38 10° SW 08:01:55 60° SSE 08:15:03 10° E visible
18 Sep - 10:06:33 10° W 10:16:49 85° S 10:34:38 10° E visible
18 Sep - 12:19:52 10° W 12:33:42 74° SSW 12:53:44 10° ESE visible
18 Sep - 14:35:03 10° W 14:50:56 45° SSW 15:09:06 10° SSE daylight
18 Sep - 16:56:39 10° WSW 17:06:55 17° SW 17:17:00 10° SSW daylight
19 Sep - 06:52:39 10° SW 06:58:38 42° SSE 07:08:46 10° E visible
19 Sep - 09:03:43 10° WSW 09:12:16 81° S 09:27:52 10° E visible
19 Sep - 11:16:25 10° W 11:28:18 80° S 11:47:31 10° ESE visible
19 Sep - 13:30:29 10° W 13:45:24 55° SSW 14:04:43 10° SE daylight
19 Sep - 15:48:16 10° W 16:01:59 26° SW 16:16:20 10° S daylight
20 Sep - 05:51:17 10° SSW 05:55:53 25° SE 06:02:36 10° E night (unlit)
20 Sep - 08:01:09 10° WSW 08:08:17 71° SSE 08:21:21 10° E visible
20 Sep - 10:13:16 10° W 10:23:19 84° S 10:40:53 10° E visible
20 Sep - 12:26:33 10° W 12:39:54 65° SSW 12:59:28 10° SE visible
20 Sep - 14:42:11 10° W 14:56:46 35° SW 15:13:38 10° SSE daylight
